FENGYUN 1C DEB

Satellite information

Favourite Embed

Satellite Type and Status

DEBRISIN ORBIT

Key statistics

Satellite FENGYUN 1C DEB at a glance.

Uptime

9553

Days in orbit

Revolutions

≈ 14.3

Per day

Orbit

SSO

Sun Synchronous Orbit

Inclination

98.9

Latest

Satellite identification and parameters

Extended collection of information and parameters for FENGYUN 1C DEB.

Object identification

Identified? True

Debris? True

Object name: FENGYUN 1C DEB

International designator: 1999-025CAA

Object number (NORAD): 31620

Object ID (CCSDS): 31620

Country: PEOPLES REPUBLIC OF CHINA (PRC)

Current information (Y/N): Y

RCS size: SMALL

Orbital parameters

Period: 100.375 minutes

Inclination: 98.891 deg

SMA: 7154.453 km

Apoapsis: 793.735 km

Periapsis: 758.9 km

RAAN: 264.6056 deg

Eccentricy: 0.0024345

Argument of periapsis: 152.8371 deg

Mean anomaly: 207.4092 deg

Mean motion: 14.34624083 rev/day

Mean motion (dot): 0.00004615 rev/day2

B* drag term: 0.0016427 1/REarth

Two-line elements (TLE)

Creation date: July 4, 2025, 6:39 p.m.

Reference frame: TEME

Reference center: EARTH

Epoch: July 4, 2025, 11:11 a.m. UTC

TLE line 0: 0 FENGYUN 1C DEB

TLE line 1: 1 31620U 99025CAA 25185.46648392 .00004615 00000-0 16427-2 0 9998

TLE line 2: 2 31620 98.8910 264.6056 0024345 152.8371 207.4092 14.34624083635309

Live tracking on map

Real-time ground track for satellite FENGYUN 1C DEB.

In-orbit conjunctions

A list of the most updated potential collisions computed for object FENGYUN 1C DEB.

Target Orbit TCA Probability of collision Miss distance Type
COSMOS 1354 LEO 2025-06-15 03:16:36 0.001697718 140.0 (m) PAYLOAD
IRIDIUM 33 LEO 2024-12-15 14:02:57 0.0002087739 208.0 (m) PAYLOAD
COSMOS 1850 LEO 2024-12-09 01:52:54 0.0005608263 488.0 (m) PAYLOAD

Associated space launch

Chinese polar orbiting meteorological satellite

FENGYUN 1C DEB was lifted into orbit during the mission ‘Long March 4B | Feng Yun 1C’, on board a Long March 4B space rocket.

The launch took place on May 10, 1999, 1:33 a.m. from Launch Complex 7.

For more information about the launch, click the button.

Launch to space Long March 4B | Feng Yun 1C
Long March 4B | Feng Yun 1C

Agency: N/A

Status: Launch Successful

Launch date: May 10, 1999, 1:33 a.m. UTC

Rocket: Long March 4B

Launch pad: Launch Complex 7

Location: Taiyuan Satellite Launch Center, People's Republic of China

...

Latest news about this satellite

There are no fresh news available about this satellite. Check back as we update our databases every day.


Newsletter sign-up

Weekly statistics, charts and insights to help you stay on top of the space industry.